Regional Weather Roundup
Issued by NWS

Home | Current Version | Previous Version | Text Only | Print | Product List | Glossary Off
Versions: 1 2 3 4 5 6 7 8 9 10 11 12 13 14 15 16 17 18 19 20 21 22 23 24 25 26 27

000
ASUS45 KBOI 240110
RWRID
WEATHER ROUNDUP FOR IDAHO
NATIONAL WEATHER SERVICE BOISE ID
700 PM MDT WED APR 23 2014

NOTE: "FAIR" INDICATES FEW OR NO CLOUDS BELOW 12000 FEET
WITH NO SIGNIFICANT WEATHER AND/OR OBSTRUCTIONS TO VISIBILITY

IDZ012-014-240200-
SOUTHWEST IDAHO


CITY           SKY/WX    TMP DP  RH WIND       PRES   REMARKS
BOISE          MOSUNNY   55  27  34 SE3       29.95F
CALDWELL       PTSUNNY   55  30  38 E6        29.96S
MOUNTAIN HOME  MOSUNNY   57  24  28 E7        29.96S
$$

IDZ016-017-240200-
SOUTHCENTRAL IDAHO


CITY           SKY/WX    TMP DP  RH WIND       PRES   REMARKS
BURLEY         PTSUNNY   50  28  42 W15G21    30.00R
JEROME         MOSUNNY   51  24  34 S10       30.00R
TWIN FALLS     CLOUDY    53  26  35 SW12      29.99S
$$

IDZ019>023-240200-
SOUTHEAST IDAHO


CITY           SKY/WX    TMP DP  RH WIND       PRES   REMARKS
IDAHO FALLS    PTSUNNY   49  19  30 SW28G33   29.93R
POCATELLO      MOSUNNY   49  24  37 W21       30.00S
REXBURG        PTSUNNY   48  19  31 SW23G35   29.90S
$$

IDZ006-010-011-018-031-032-240200-
CENTRAL IDAHO MOUNTAINS


CITY           SKY/WX    TMP DP  RH WIND       PRES   REMARKS
MCCALL         CLOUDY    40  30  67 SE7       29.91F
HAILEY         PTSUNNY   45  21  39 NW12      29.99R
STANLEY          N/A     35  20  54 S6        29.97R WCI  30
SALMON         MOSUNNY   48  19  32 W7        29.86S
CHALLIS        MOSUNNY   46  17  31 SW14      29.92R
$$

IDZ002-004-006-007-026-240200-
NORTHERN IDAHO


CITY           SKY/WX    TMP DP  RH WIND       PRES   REMARKS
LEWISTON       LGT RAIN  49  37  63 E6        29.90F
LOWELL           N/A     44  41  89 CALM      29.97R
COEUR D`ALENE  CLOUDY    43  37  81 NE9       29.85S
MULLAN PASS    LGT SNOW  28  26  92 VRB5G20   29.78F FOG     WCI  23
$$



USA.gov is the U.S. government's official web portal to all federal, state and local government web resources and services.